Weather in Polom

Russia / Kirov Oblast     58°21′59″N   50°20′26″E
temp.,
°C
wind,
m/s
gust,
m/s
humid.,
%
clouds,
%
prec.,
mm/h
press.,
hPa
HPBL,
m
23 april, fri
fri2300:00+5s489469 0.1 1023287
03:00+3ssw3697100 0.1 1024123
06:00+4ssw249411 0.0 1025117
09:00+9s44710 0.0 1025656
12:00+12ssw445423 0.0 10251507
15:00+13s3348100 0.1 10241766
18:00+10sse477062 0.0 1023218
21:00+7sse36815 0.1 1023123
24 april, sat
sat2400:00+6se488986 0.0 1023199
03:00+5ese4109153 0.1 1022282
06:00+5ese5118759 0.0 1020360
09:00+8ese6873100 0.0 1018657
12:00+9ese5776100 0.0 10171179
15:00+7ese5787100 0.2 10151050
18:00+6ese4892100 1.3 1014965
21:00+5ese5994100 1.6 1012686
25 april, sun
sun2500:00+5ese5994100 0.2 1009620
03:00+5ese5994100 0.8 1007938
06:00+5ese61095100 0.3 1004794
09:00+5ese61092100 0.3 1002745
12:00+5ese5895100 3.3 1001963
15:00+4sw41096100 5.3 1002656
18:00+4sw61081100 0.3 1003831
21:00+2sw71496100 0.4 1004978
26 april, mon
mon2600:00+2sw81593100 0.3 10051108
03:00+2sw91784100 0.5 10061179
06:00+2sw81679100 0.0 10071383
09:00+5sw81568100 0.0 10081627
12:00+8sw9135797 0.1 10082033
15:00+8wsw8115273 0.3 10091971
18:00+6sw711655 0.2 1010872
21:00+3sw511836 0.2 1011308
27 april, tue
tue2700:00+1ssw38872 0.0 1011163
03:00+1ssw34867 0.0 101053
06:00+3ssw347623 0.0 1010156
09:00+7s345999 0.0 1008869
12:00+5se358899 0.2 1007553
15:00+8ssw166795 0.9 1004980
18:00+6s51082100 0.5 10021013
21:00+2w71396100 1.3 1004617